Hartford, CT

3:39 AM EDT on March 30, 2017 (GMT -0400)
Hartford-brainard

Weather History for KHFD - January, 2014

Change the Weather History Date:

Monday, January 20, 2014

  Actual Average Record
Temperature  
Mean Temperature 36 °F -  
Max Temperature 45 °F 34 °F 60 °F (1951)
Min Temperature 25 °F 15 °F -6 °F (1920)
Degree Days  
Heating Degree Days 28    
Moisture  
Dew Point 21 °F    
Average Humidity 52    
Maximum Humidity 85    
Minimum Humidity 44    
Precipitation  
Precipitation 0.00 in - - ()
Sea Level Pressure  
Sea Level Pressure 29.66 in    
Wind  
Wind Speed 10 mph (WSW)    
Max Wind Speed 17 mph    
Max Gust Speed 28 mph    
Visibility 10 miles    
Events Snow    
Averages and records for this station are not official NWS values.
T = Trace of Precipitation, MM = Missing Value Source: NWS Daily Summary

Daily Weather History Graph

Daily Weather History Graph

Search for Another Location

Airport or City:

Trip Planner

Search our weather history database for the weather conditions in past years. The results will help you decide how hot, cold, wet, or windy it might be!

Date:

Astronomy

Jan. 20, 2014 Rise Set
Actual Time 7:12 AM EST 4:51 PM EST
Civil Twilight 6:42 AM EST 5:21 PM EST
Nautical Twilight 6:08 AM EST 5:55 PM EST
Astronomical Twilight 5:35 AM EST 6:28 PM EST
Moon 9:27 PM EST (1/20) 9:06 AM EST (1/20)
Length of Visible Light 10h 38m
Length of Day
9h 38m
Waning Gibbous, 83% of the Moon is Illuminated
Jan 20
Waning Gibbous
Jan 24
Last Quarter
Jan 30
New
Feb 6
First Quarter
Feb 14
Full

Hourly Weather History & Observations

Time (EST) Temp. Windchill Dew Point Humidity Pressure Visibility Wind Dir Wind Speed Gust Speed Precip Events Conditions
12:53 AM 36.0 °F 29.6 °F 21.0 °F 55% 29.60 in 10.0 mi SSW 8.1 mph - N/A   Mostly Cloudy
1:53 AM 36.0 °F 29.6 °F 19.9 °F 52% 29.59 in 10.0 mi SSW 8.1 mph - N/A   Clear
2:53 AM 36.0 °F 30.3 °F 21.0 °F 55% 29.61 in 10.0 mi SSW 6.9 mph - N/A   Clear
3:53 AM 37.0 °F 31.0 °F 19.9 °F 50% 29.60 in 10.0 mi WSW 8.1 mph - N/A   Partly Cloudy
4:53 AM 37.0 °F 29.3 °F 19.9 °F 50% 29.61 in 10.0 mi WSW 11.5 mph 24.2 mph N/A   Clear
5:53 AM 37.0 °F 31.0 °F 19.9 °F 50% 29.60 in 10.0 mi WSW 8.1 mph 18.4 mph N/A   Clear
6:53 AM 37.9 °F 30.5 °F 21.0 °F 51% 29.60 in 10.0 mi SW 11.5 mph - N/A   Clear
7:53 AM 37.9 °F 32.1 °F 21.0 °F 51% 29.61 in 10.0 mi SSW 8.1 mph - N/A   Overcast
8:53 AM 37.9 °F 31.5 °F 21.9 °F 53% 29.61 in 10.0 mi SSW 9.2 mph - N/A   Overcast
9:53 AM 39.0 °F 33.4 °F 21.9 °F 50% 29.62 in 10.0 mi SSW 8.1 mph - N/A   Scattered Clouds
10:53 AM 39.9 °F 33.9 °F 21.9 °F 49% 29.61 in 10.0 mi WSW 9.2 mph 17.3 mph N/A   Clear
11:53 AM 42.1 °F 36.1 °F 21.9 °F 45% 29.57 in 10.0 mi West 10.4 mph 19.6 mph N/A   Overcast
12:53 PM 44.1 °F 39.0 °F 24.1 °F 45% 29.55 in 10.0 mi WSW 9.2 mph 16.1 mph N/A   Clear
1:53 PM 45.0 °F 38.2 °F 24.1 °F 44% 29.54 in 10.0 mi WSW 15.0 mph 20.7 mph N/A   Mostly Cloudy
2:53 PM 44.1 °F 40.1 °F 24.1 °F 45% 29.57 in 10.0 mi West 6.9 mph - N/A   Overcast
3:53 PM 43.0 °F 35.4 °F 24.1 °F 47% 29.58 in 10.0 mi West 16.1 mph 24.2 mph N/A   Mostly Cloudy
4:53 PM 42.1 °F 36.1 °F 24.1 °F 49% 29.64 in 10.0 mi WSW 10.4 mph 18.4 mph N/A   Scattered Clouds
5:53 PM 42.1 °F 35.7 °F 25.0 °F 51% 29.68 in 10.0 mi West 11.5 mph 19.6 mph N/A   Overcast
6:53 PM 35.1 °F 27.9 °F 30.9 °F 85% 29.73 in 7.0 mi NNW 9.2 mph 21.9 mph 0.00 in Snow Light Snow
7:53 PM 36.0 °F 28.0 °F 28.9 °F 76% 29.78 in 10.0 mi NNW 11.5 mph - 0.00 in   Overcast
8:53 PM 33.1 °F 22.2 °F 17.1 °F 52% 29.82 in 10.0 mi NNW 17.3 mph 27.6 mph N/A   Overcast
9:53 PM 30.0 °F 19.1 °F 12.9 °F 49% 29.86 in 10.0 mi NNW 15.0 mph - N/A   Clear
10:53 PM 28.0 °F 18.1 °F 10.0 °F 47% 29.90 in 10.0 mi NW 11.5 mph - N/A   Clear
11:53 PM 25.0 °F 13.6 °F 9.0 °F 51% 29.92 in 10.0 mi NNW 12.7 mph - N/A   Clear